Torna al catalogo

COSMOS 970 DEB

AttivoLEO
NORAD 64977·DEBRIS·🇷🇺 Russia

Lanciato Dec 21, 1977 da Baikonur Cosmodrome

Loading…

Prossimi Passaggi (prossime 24 ore)

TLE

AggiornatoSource: Space-Track

Epoca: Sep 13, 2026, 20:31 UTC

1 64977U 77121CN  26256.85533780  .00000088  00000-0  17814-3 0  9991
2 64977  65.7674  91.8351 0120410 351.9514  23.0697 13.71350280640718

Traccia COSMOS 970 DEB in tempo reale con AllMySat

Download on the App Store